Regional Weather Roundup
Issued by NWS

Home | Current Version | Previous Version | Text Only | Print | Product List | Glossary Off
Versions: 1 2 3 4 5 6 7 8 9 10 11 12 13 14 15 16 17 18 19 20 21 22 23 24 25 26 27 28 29 30 31 32 33 34 35 36 37 38 39 40 41 42 43 44 45 46 47 48 49 50

000
ASUS43 KDMX 292203
RWRIA

WEATHER ROUNDUP FOR IOWA
NATIONAL WEATHER SERVICE DES MOINES IA
500 PM CDT THU SEP 29 2016

NOTE: "FAIR" INDICATES FEW OR NO CLOUDS BELOW 12,000 FEET WITH NO
SIGNIFICANT WEATHER AND/OR OBSTRUCTIONS TO VISIBILITY.

* - THESE STATIONS ARE NOT NWS STATIONS...THUS NOT UNDER NWS
QUALITY CONTROL.  THEY ALSO DO NOT REPORT WEATHER SUCH
AS PRECIPITATION OR FOG.

IAZ001>003-012>014-020>022-031>034-043>046-292300-
   NORTHWEST IOWA

CITY           SKY/WX    TMP DP  RH WIND       PRES   REMARKS
CARROLL *      SUNNY     70  43  37 NE9       30.34F
CHEROKEE *     SUNNY     69  48  47 NE7       30.36F
DENISON *      SUNNY     68  46  45 E6        30.33F
LE MARS *      HAZE      70  46  43 E6        30.36F VSB 1
SHELDON *      SUNNY     68  46  45 VRB5      30.36S
SIOUX CITY     SUNNY     71  48  43 E7        30.35F
SPENCER        SUNNY     68  49  50 E6        30.37F
STORM LAKE *   SUNNY     68  46  45 VRB7G13   30.37F
$$

IAZ055>058-069>071-079>083-090>094-292300-
   SOUTHWEST IOWA

CITY           SKY/WX    TMP DP  RH WIND       PRES   REMARKS
ATLANTIC *     SUNNY     70  46  43 NE9       30.33F
AUDUBON *      SUNNY     70  45  40 NE7       30.35F
CLARINDA *       N/A     72  46  40 MISG      30.33F
COUNCIL BLFS * SUNNY     70  45  40 NE7G13    30.33F
CRESTON *      SUNNY     70  46  43 N9G15     30.33S
HARLAN  *      SUNNY     70  45  40 NE8       30.37F
LAMONI         SUNNY     70  50  49 N9        30.30S
RED OAK *      SUNNY     70  48  46 N7        30.33S
SHENANDOAH *   SUNNY     72  46  40 N7        30.33S
$$

IAZ047>049-059>061-072>074-084-292300-
   CENTRAL IOWA

CITY           SKY/WX    TMP DP  RH WIND       PRES   REMARKS
AMES           SUNNY     72  49  44 N12       30.31F
ANKENY *         N/A    N/A N/A N/A MISG        N/A
BOONE *        SUNNY     72  45  37 NE8       30.31F HAZE
CHARITON *       N/A     72  48  43 N15       30.28F
DES MOINES     SUNNY     75  46  35 NE8       30.30S
GRINNELL*      SUNNY     73  44  34 N13       30.29S
KNOXVILLE *    SUNNY     73  46  38 N8G18     30.27S
MARSHALLTOWN   SUNNY     73  47  39 N12       30.29F
NEWTON *       SUNNY     72  46  40 N13G21    30.28F
PELLA *        SUNNY     74  46  36 N9        30.29S
PERRY *          N/A     72  46  39 N6        30.32F
$$

IAZ004>006-015-016-023>025-035-036-292300-
   NORTH CENTRAL IOWA

CITY           SKY/WX    TMP DP  RH WIND       PRES   REMARKS
ALGONA *       SUNNY     68  48  49 N9        30.37S
CLARION *      SUNNY     72  45  37 NE8       30.34S
ESTHERVILLE    SUNNY     66  49  54 NE8       30.37F
FORT DODGE *   SUNNY     68  54  60 N6        30.35F
MASON CITY     SUNNY     71  44  37 N10       30.36F
FOREST CITY *    N/A     70  46  43 CALM      30.36S
WEBSTER CITY * SUNNY     72  45  37 N12       30.31F
IOWA FALLS *     N/A     73  43  34 NE12      30.33S
$$

IAZ007>011-017>019-026>030-037>042-050>054-066-292300-
   NORTHEAST IOWA

CITY           SKY/WX    TMP DP  RH WIND       PRES   REMARKS
CEDAR RAPIDS   SUNNY     73  49  42 N15       30.25F
CHARLES CITY * SUNNY     72  45  37 NE10G16   30.33F
CLINTON *      PTSUNNY   72  53  51 NE17      30.23S
DECORAH *      SUNNY     68  50  52 N8G14     30.32F
DUBUQUE        SUNNY     70  48  45 NE15G23   30.26S
MONTICELLO *   SUNNY     73  48  40 NE14G23   30.26S
OELWEIN *      SUNNY     72  48  43 NE14      30.31S
WATERLOO       SUNNY     72  45  37 N13G20    30.29F
$$

IAZ064-065-067-068-078-292300-
   EAST CENTRAL IOWA

CITY           SKY/WX    TMP DP  RH WIND       PRES   REMARKS
DAVENPORT      MOSUNNY   74  51  44 N16G24    30.23S
IOWA CITY      SUNNY     74  48  39 N13G23    30.25F
MT. PLEASANT * SUNNY     77  44  30 N17       30.22R
MUSCATINE *    SUNNY     75  48  38 NE18      30.22S
QUAD CITIES    CLOUDY    73  51  46 NE16G23   30.21S
$$

IAZ062-063-075>077-085>089-095>099-292300-
   SOUTHEAST IOWA

CITY           SKY/WX    TMP DP  RH WIND       PRES   REMARKS
BURLINGTON     SUNNY     73  53  49 NE14      30.20S
FAIRFIELD *    SUNNY     75  43  31 N16       30.23S
FORT MADISON *   N/A     75  46  35 N10G17    30.21S
KEOKUK *       SUNNY     75  46  35 NE12G18   30.19S
OSKALOOSA *      N/A     75  42  30 N14G21    30.26S
OTTUMWA        SUNNY     76  42  29 NE13      30.25F
WASHINGTON *     N/A    N/A N/A N/A MISG        N/A
$$

ABBREVIATIONS USED IN REMARKS
   TC - TEMPERATURES IN CELSIUS
  WCI - WIND CHILL INDEX
   HX - HEAT INDEX
  VSB - VISIBILITY
$$





USA.gov is the U.S. government's official web portal to all federal, state and local government web resources and services.